BHS229 TIST-TNCM

Flight info

Callsign BHS229
Flight time 0h 24m
Altitude 13000
Route STT A638 PJM
Aircraft B736/M-SDE2E3FGHIRWXY/LB1

Departure

Time 2026-05-07 00:44
Airport Cyril E. King Airport (TIST)

Arrival

Time 2026-05-07 01:09
Airport Princess Juliana International Airport (TNCM)
Time Latitude Longitude Altitude Speed Heading
2026-05-07 00:27 18.33555 -64.97296 26 ft 0 kts 178°
2026-05-07 00:27 18.33558 -64.97296 29 ft 0 kts 178°
2026-05-07 00:38 18.33560 -64.97296 26 ft 2 kts 178°
2026-05-07 00:38 18.33586 -64.97296 30 ft 4 kts 178°
2026-05-07 00:38 18.33612 -64.97296 31 ft 4 kts 187°
2026-05-07 00:38 18.33638 -64.97289 26 ft 4 kts 213°
2026-05-07 00:39 18.33651 -64.97272 29 ft 1 kts 268°
2026-05-07 00:39 18.33651 -64.97268 29 ft 0 kts 268°
2026-05-07 00:41 18.33650 -64.97275 29 ft 3 kts 268°
2026-05-07 00:41 18.33649 -64.97314 26 ft 8 kts 265°
2026-05-07 00:41 18.33640 -64.97386 27 ft 12 kts 263°
2026-05-07 00:42 18.33627 -64.97492 26 ft 17 kts 262°
2026-05-07 00:42 18.33609 -64.97629 26 ft 21 kts 263°
2026-05-07 00:42 18.33601 -64.97797 26 ft 25 kts 267°
2026-05-07 00:42 18.33593 -64.97985 26 ft 25 kts 267°
2026-05-07 00:43 18.33585 -64.98164 26 ft 24 kts 267°
2026-05-07 00:43 18.33590 -64.98312 26 ft 17 kts 302°
2026-05-07 00:43 18.33682 -64.98308 28 ft 14 kts 59°
2026-05-07 00:43 18.33696 -64.98149 26 ft 49 kts 87°
2026-05-07 00:44 18.33724 -64.97499 28 ft 126 kts 87°
2026-05-07 00:44 18.33763 -64.96445 492 ft 143 kts 89°
2026-05-07 00:44 18.33606 -64.95443 1421 ft 142 kts 104°
2026-05-07 00:44 18.33325 -64.94441 2207 ft 146 kts 106°
2026-05-07 00:45 18.33013 -64.93363 2750 ft 168 kts 106°
2026-05-07 00:45 18.32648 -64.92066 3165 ft 194 kts 106°
2026-05-07 00:45 18.32261 -64.90674 3915 ft 202 kts 104°
2026-05-07 00:45 18.32197 -64.89189 4704 ft 212 kts 86°
2026-05-07 00:46 18.32337 -64.87518 5038 ft 247 kts 86°
2026-05-07 00:46 18.32493 -64.85631 5615 ft 266 kts 86°
2026-05-07 00:46 18.32653 -64.83665 6504 ft 273 kts 86°
2026-05-07 00:46 18.32814 -64.81657 7368 ft 277 kts 86°
2026-05-07 00:47 18.32939 -64.79617 8247 ft 282 kts 87°
2026-05-07 00:47 18.33050 -64.77538 9093 ft 288 kts 87°
2026-05-07 00:47 18.33161 -64.75417 9960 ft 293 kts 86°
2026-05-07 00:47 18.33277 -64.73225 10469 ft 311 kts 86°
2026-05-07 00:48 18.33404 -64.70850 10655 ft 338 kts 86°
2026-05-07 00:48 18.33495 -64.69174 10770 ft 354 kts 86°
2026-05-07 00:48 18.33641 -64.66504 10926 ft 376 kts 86°
2026-05-07 00:48 18.33795 -64.63691 11125 ft 392 kts 86°
2026-05-07 00:49 18.33954 -64.60795 11564 ft 399 kts 86°
2026-05-07 00:49 18.34114 -64.57872 12040 ft 402 kts 86°
2026-05-07 00:49 18.34275 -64.54923 12442 ft 407 kts 86°
2026-05-07 00:49 18.34439 -64.51925 12682 ft 412 kts 86°
2026-05-07 00:50 18.34603 -64.48918 12926 ft 412 kts 86°
2026-05-07 00:50 18.34767 -64.45898 12997 ft 414 kts 86°
2026-05-07 00:50 18.34930 -64.42878 13001 ft 412 kts 86°
2026-05-07 00:50 18.35093 -64.39865 13011 ft 413 kts 86°
2026-05-07 00:51 18.35255 -64.36850 13005 ft 413 kts 86°
2026-05-07 00:51 18.35417 -64.33830 12996 ft 412 kts 86°
2026-05-07 00:51 18.35578 -64.30821 13006 ft 410 kts 86°
2026-05-07 00:51 18.35738 -64.27835 13089 ft 409 kts 86°
2026-05-07 00:52 18.35898 -64.24830 13105 ft 414 kts 86°
2026-05-07 00:52 18.36059 -64.21805 13103 ft 413 kts 86°
2026-05-07 00:52 18.36219 -64.18787 13104 ft 413 kts 86°
2026-05-07 00:52 18.36378 -64.15763 13105 ft 413 kts 86°
2026-05-07 00:53 18.36538 -64.12739 13102 ft 413 kts 86°
2026-05-07 00:53 18.36696 -64.09718 13108 ft 413 kts 86°
2026-05-07 00:53 18.36853 -64.06698 13099 ft 413 kts 86°
2026-05-07 00:53 18.37011 -64.03679 13100 ft 413 kts 86°
2026-05-07 00:54 18.37168 -64.00661 13104 ft 413 kts 86°
2026-05-07 00:54 18.37324 -63.97640 13103 ft 413 kts 86°
2026-05-07 00:54 18.37478 -63.94663 13099 ft 413 kts 86°
2026-05-07 00:54 18.37633 -63.91645 13093 ft 401 kts 86°
2026-05-07 00:55 18.37782 -63.88741 13100 ft 395 kts 86°
2026-05-07 00:55 18.37928 -63.85899 13108 ft 394 kts 86°
2026-05-07 00:55 18.38077 -63.82976 13110 ft 395 kts 86°
2026-05-07 00:55 18.38225 -63.80081 12708 ft 397 kts 86°
2026-05-07 00:56 18.38369 -63.77231 12119 ft 394 kts 86°
2026-05-07 00:56 18.38514 -63.74376 11521 ft 387 kts 86°
2026-05-07 00:56 18.38653 -63.71615 11389 ft 368 kts 86°
2026-05-07 00:56 18.38716 -63.68985 11214 ft 353 kts 94°
2026-05-07 00:57 18.38084 -63.66549 11015 ft 341 kts 114°
2026-05-07 00:57 18.36775 -63.64508 10765 ft 333 kts 132°
2026-05-07 00:57 18.35166 -63.62826 10682 ft 318 kts 136°
2026-05-07 00:57 18.33591 -63.61282 10560 ft 302 kts 136°
2026-05-07 00:58 18.32082 -63.59822 10451 ft 287 kts 136°
2026-05-07 00:58 18.30646 -63.58426 10266 ft 276 kts 136°
2026-05-07 00:58 18.29248 -63.57059 9918 ft 273 kts 136°
2026-05-07 00:58 18.27862 -63.55696 9493 ft 272 kts 136°
2026-05-07 00:59 18.25386 -63.53250 8734 ft 267 kts 136°
2026-05-07 00:59 18.24036 -63.51912 8331 ft 265 kts 136°
2026-05-07 00:59 18.22698 -63.50587 7978 ft 263 kts 136°
2026-05-07 01:00 18.21374 -63.49273 7623 ft 261 kts 136°
2026-05-07 01:00 18.20060 -63.47969 7273 ft 259 kts 136°
2026-05-07 01:00 18.18758 -63.46676 6928 ft 256 kts 136°
2026-05-07 01:00 18.17460 -63.45388 6570 ft 256 kts 136°
2026-05-07 01:01 18.16168 -63.44106 6184 ft 255 kts 136°
2026-05-07 01:01 18.14883 -63.42831 5704 ft 256 kts 136°
2026-05-07 01:01 18.13601 -63.41560 5353 ft 251 kts 136°
2026-05-07 01:01 18.12364 -63.40332 5059 ft 245 kts 136°
2026-05-07 01:02 18.11142 -63.39121 4772 ft 238 kts 136°
2026-05-07 01:02 18.09945 -63.37933 4493 ft 234 kts 136°
2026-05-07 01:02 18.08767 -63.36765 4237 ft 232 kts 135°
2026-05-07 01:02 18.07605 -63.35614 4000 ft 226 kts 135°
2026-05-07 01:03 18.06478 -63.34497 3725 ft 220 kts 135°
2026-05-07 01:03 18.05384 -63.33414 3468 ft 213 kts 135°
2026-05-07 01:03 18.04327 -63.32368 3220 ft 205 kts 135°
2026-05-07 01:03 18.03309 -63.31360 2983 ft 197 kts 134°
2026-05-07 01:04 18.02343 -63.30405 2781 ft 188 kts 133°
2026-05-07 01:04 18.01677 -63.29300 2608 ft 173 kts 103°
2026-05-07 01:04 18.01651 -63.28101 2478 ft 159 kts 81°
2026-05-07 01:04 18.01809 -63.26978 2369 ft 155 kts 82°
2026-05-07 01:05 18.01963 -63.25855 2262 ft 154 kts 81°
2026-05-07 01:05 18.02117 -63.24763 2130 ft 150 kts 82°
2026-05-07 01:05 18.02270 -63.23684 2041 ft 150 kts 82°
2026-05-07 01:05 18.02424 -63.22596 1933 ft 149 kts 81°
2026-05-07 01:06 18.02572 -63.21570 1816 ft 134 kts 82°
2026-05-07 01:06 18.02704 -63.20639 1672 ft 128 kts 83°
2026-05-07 01:06 18.02825 -63.19701 1514 ft 131 kts 83°
2026-05-07 01:06 18.02960 -63.18768 1366 ft 126 kts 82°
2026-05-07 01:07 18.03096 -63.17869 1153 ft 125 kts 81°
2026-05-07 01:07 18.03227 -63.16957 954 ft 127 kts 81°
2026-05-07 01:07 18.03361 -63.16036 816 ft 128 kts 81°
2026-05-07 01:07 18.03496 -63.15117 650 ft 128 kts 82°
2026-05-07 01:08 18.03619 -63.14196 448 ft 130 kts 82°
2026-05-07 01:08 18.03756 -63.13246 309 ft 129 kts 81°
2026-05-07 01:08 18.03888 -63.12333 142 ft 128 kts 81°
2026-05-07 01:08 18.04019 -63.11407 27 ft 120 kts 82°
2026-05-07 01:09 18.04113 -63.10744 26 ft 50 kts 82°
2026-05-07 01:09 18.04117 -63.10539 26 ft 13 kts 101°
2026-05-07 01:09 18.04147 -63.10524 27 ft 6 kts 281°
2026-05-07 01:09 18.04138 -63.10571 27 ft 9 kts 260°
2026-05-07 01:10 18.04124 -63.10672 26 ft 19 kts 261°
2026-05-07 01:10 18.04100 -63.10842 26 ft 27 kts 262°
2026-05-07 01:10 18.04069 -63.11041 27 ft 27 kts 262°
2026-05-07 01:10 18.04091 -63.11156 27 ft 11 kts 330°
2026-05-07 01:11 18.04145 -63.11188 27 ft 10 kts 271°
2026-05-07 01:11 18.04137 -63.11257 27 ft 10 kts 262°
2026-05-07 01:11 18.04168 -63.11304 27 ft 9 kts 349°
2026-05-07 01:11 18.04231 -63.11327 28 ft 10 kts 311°
2026-05-07 01:12 18.04233 -63.11398 28 ft 10 kts 261°
2026-05-07 01:12 18.04222 -63.11468 28 ft 9 kts 253°
2026-05-07 01:12 18.04186 -63.11525 27 ft 10 kts 245°
2026-05-07 01:12 18.04215 -63.11572 28 ft 5 kts 320°
2026-05-07 01:13 18.04227 -63.11582 28 ft 1 kts 320°